[[{"header":{"parameterUnit":"m.s-1","parameterCategory":2,"la1":30.2991,"la2":30.254,"lo1":-89.0895,"lo2":-89.0444,"dy":0.0017,"dx":0.0017,"nx":28,"ny":28,"refTime":"2024-04-28T09:00:00:Z","depth":"0","parameterNumber":2,"parameterNumberName":"U-component_of_CURRENTS"},"data":[0,0,0,0,0,0,0,0,0,0,0,0,0,0,0,0,0,0,0,0,0,0,0,0,0,0,0,0,0,0,0,0,0,0,0,0,0,0,0,0,0,0,0,0,0,0,0,0,0,0,0,0,0,0,0,0,0,0,-0.4038,-0.4039,0,-0.4102,-0.4102,-0.4102,-0.4062,-0.4061,-0.406,-0.4059,-0.3922,-0.392,-0.3917,0,0,0,0,0,0,0,0,0,0,0,0,0,-0.3781,-0.3785,-0.4038,-0.4039,-0.4041,-0.4102,-0.4102,-0.4102,-0.4062,-0.4061,-0.4059,-0.4058,-0.3923,-0.392,-0.3917,0,0,0,0,0,0,0,0,0,0,0,0,0,-0.3865,-0.3787,-0.4037,-0.4035,-0.4036,-0.4102,-0.4102,-0.4102,-0.4062,-0.4061,-0.4059,-0.4058,-0.3924,-0.392,-0.3917,-0.3924,0,0,-0.3904,-0.3903,0,0,0,0,0,0,0,0,-0.386,-0.3873,-0.4034,-0.4036,-0.4037,-0.408,-0.3962,-0.4036,-0.4063,-0.4043,-0.4059,-0.4057,-0.3964,-0.3957,-0.3962,-0.3917,-0.3911,-0.3904,-0.3902,-0.39,-0.3899,0,0,0,0,0,0,0,-0.3854,-0.387,-0.4054,-0.4036,-0.4038,-0.3998,-0.4008,-0.3975,-0.4,-0.4044,-0.4044,-0.4066,-0.3962,-0.3966,-0.3958,-0.3909,-0.3904,-0.3901,-0.3898,-0.3897,-0.3871,-0.3873,0,0,0,0,0,0,-0.3873,-0.3866,-0.4052,-0.4057,-0.3953,-0.4005,-0.4015,-0.406,-0.4005,-0.4,-0.4067,-0.4064,-0.3974,-0.3963,-0.3953,-0.3961,-0.39,-0.3896,-0.3894,-0.3869,-0.3871,-0.3873,0,0,0,0,0,0,-0.3868,-0.389,-0.405,-0.3967,-0.3986,-0.4012,-0.4062,-0.4063,-0.4071,-0.4027,-0.4015,-0.4077,-0.3972,-0.3958,-0.394,-0.3954,-0.3894,-0.3891,-0.3867,-0.387,-0.3872,-0.3974,0,0,0,0,0,0,-0.3861,-0.3888,-0.3916,-0.397,-0.3992,-0.4102,-0.4065,-0.4066,-0.4092,-0.4088,-0.4031,-0.4017,-0.397,-0.3947,-0.3936,-0.3948,-0.3888,-0.3865,-0.3869,-0.3872,-0.3968,-0.3979,-0.3989,0,0,0,0,0,-0.3851,-0.391,-0.3917,-0.3939,-0.4034,-0.4105,-0.4112,-0.4116,-0.4094,-0.4112,-0.4074,-0.4018,-0.3959,-0.3945,-0.3932,-0.3943,-0.3864,-0.3868,-0.3871,-0.3963,-0.3977,-0.3989,0,0,0,0,0,0,-0.3807,-0.3914,-0.3922,-0.4008,-0.4056,-0.4102,-0.4127,-0.4128,-0.4116,-0.4101,-0.4041,-0.4026,-0.4015,-0.3974,-0.396,-0.3948,-0.3902,-0.3903,-0.3976,-0.3988,-0.3999,-0.3997,-0.3884,0,0,0,0,0,-0.3816,-0.389,-0.3966,-0.4031,-0.4062,-0.4092,-0.4117,-0.4126,-0.4134,-0.4128,-0.4093,-0.4052,-0.4024,-0.4002,-0.3972,-0.3966,-0.3925,-0.3966,-0.3977,-0.3986,-0.3978,-0.3941,-0.3947,-0.3886,-0.3886,-0.3886,0,0,-0.3819,-0.3886,-0.3926,-0.4026,-0.4061,-0.4116,-0.4101,-0.4157,-0.4181,-0.4112,-0.4121,-0.4087,-0.4033,-0.4028,-0.4019,-0.3992,-0.3988,-0.399,-0.3998,-0.3986,-0.3945,-0.3951,-0.3956,-0.3888,-0.3888,-0.3888,0,0,-0.3865,-0.3922,-0.3994,-0.4043,-0.4117,-0.4139,-0.4161,-0.4212,-0.4211,-0.4228,-0.4182,-0.4164,-0.4124,-0.4094,-0.4069,-0.412,-0.4048,-0.4112,-0.4154,-0.412,-0.4124,-0.4126,-0.4108,-0.4108,-0.4113,-0.4113,-0.4113,0,-0.385,-0.396,-0.4019,-0.4092,-0.4129,-0.4154,-0.4211,-0.423,-0.426,-0.4258,-0.4238,-0.4195,-0.4153,-0.4138,-0.4158,-0.4141,-0.4113,-0.411,-0.4132,-0.4133,-0.4134,-0.4114,-0.4113,-0.4118,-0.4118,-0.4117,-0.4117,0,-0.3947,-0.4023,-0.407,-0.4168,-0.4211,-0.427,-0.4311,-0.4334,-0.4329,-0.4334,-0.4327,-0.4285,-0.4252,-0.4247,-0.4212,-0.4208,-0.4185,-0.4152,-0.4097,-0.4146,-0.4123,-0.412,-0.4126,-0.4124,-0.4122,-0.4121,0,0,-0.394,-0.4103,-0.4117,-0.4156,-0.4252,-0.429,-0.4343,-0.4386,-0.4398,-0.4406,-0.4405,-0.4381,-0.4353,-0.4325,-0.4288,-0.4261,-0.4259,-0.4215,-0.4211,-0.4193,-0.4192,-0.4165,-0.4159,-0.4226,-0.4225,-0.4225,-0.4182,0,-0.3984,-0.4116,-0.4189,-0.4276,-0.4335,-0.4372,-0.4414,-0.4446,-0.4453,-0.4457,-0.4422,-0.4405,-0.4385,-0.4362,-0.4341,-0.4268,-0.4252,-0.4274,-0.415,-0.4146,-0.4111,-0.4154,-0.4081,-0.4034,-0.4178,-0.4178,-0.4177,0,-0.4044,-0.4126,-0.4224,-0.4319,-0.4346,-0.4385,-0.4429,-0.447,-0.449,-0.4494,-0.4486,-0.4457,-0.443,-0.4394,-0.4321,-0.4335,-0.4277,-0.4225,-0.4222,-0.4151,-0.4113,-0.4003,-0.4023,-0.4022,-0.4172,-0.4173,-0.4173,0,-0.3996,-0.4137,-0.4203,-0.424,-0.4356,-0.4378,-0.4418,-0.4465,-0.4488,-0.4501,-0.4511,-0.4484,-0.4452,-0.4389,-0.4312,-0.4308,-0.4216,-0.4192,-0.412,-0.4118,-0.4007,-0.3995,-0.3999,-0.4137,-0.4137,-0.4137,-0.4137,0,-0.4016,-0.406,-0.4177,-0.4215,-0.4247,-0.4342,-0.4368,-0.441,-0.4466,-0.448,-0.451,-0.4507,-0.4445,-0.4395,-0.4321,-0.422,-0.4227,-0.4132,-0.4103,-0.4045,-0.4038,-0.3989,-0.3994,-0.4135,-0.4136,-0.4136,-0.4136,0,-0.3948,-0.4045,-0.4101,-0.421,-0.4228,-0.4238,-0.4323,-0.435,-0.443,-0.4447,-0.4454,-0.4503,-0.4448,-0.4394,-0.428,-0.4226,-0.4078,-0.409,-0.4041,-0.4007,-0.394,-0.3953,-0.3871,-0.376,-0.4004,-0.4003,-0.4002,0,-0.3925,-0.3956,-0.4044,-0.4053,-0.4092,-0.4132,-0.4162,-0.4283,-0.4318,-0.4433,-0.4427,-0.4435,-0.4402,-0.428,-0.4181,-0.4067,-0.4023,-0.394,-0.3918,-0.3934,-0.3927,-0.3919,-0.3829,-0.382,-0.3818,-0.3816,-0.3815,0,-0.3834,-0.3859,-0.3898,-0.3925,-0.3951,-0.3991,-0.405,-0.4088,-0.4229,-0.4273,-0.4327,-0.4327,-0.4279,-0.4165,-0.4059,-0.3953,-0.3882,-0.3899,-0.391,-0.3784,-0.3776,-0.3655,-0.3875,-0.3798,-0.38,-0.3801,-0.3802,-0.3803,-0.3691,-0.3709,-0.3752,-0.3747,-0.3785,-0.3818,-0.3751,-0.3873,-0.3915,-0.3918,-0.412,-0.4068,-0.4141,-0.399,-0.391,-0.379,-0.3754,-0.3696,-0.3712,-0.3705,-0.3592,-0.3797,-0.3693,-0.3693,-0.3694,-0.3695,-0.3696,0,-0.3527,-0.357,-0.3569,-0.3559,-0.3502,-0.3593,-0.3623,-0.3506,-0.3459,-0.3617,-0.364,-0.3803,-0.3796,-0.3831,-0.3823,-0.3677,-0.3549,-0.3562,-0.3534,-0.3444,-0.3619,-0.3607,-0.3486,-0.3486,-0.3486,-0.3486,-0.3486,-0.3486,-0.3424,-0.3412,-0.3436,-0.3265,-0.3228,-0.3043,-0.2992,-0.2883,-0.2891,-0.2879,-0.2996,-0.3144,-0.3403,-0.3899,-0.3843,-0.3669,-0.3527,-0.3432,-0.3386,-0.3555,-0.357,-0.3583,-0.3575,-0.3449,-0.3449,-0.3134,-0.3132,-0.313]},{"header":{"parameterUnit":"m.s-1","parameterCategory":2,"la1":30.2991,"la2":30.254,"lo1":-89.0895,"lo2":-89.0444,"dy":0.0017,"dx":0.0017,"nx":28,"ny":28,"refTime":"2024-04-28T09:00:00:Z","depth":"0","parameterNumber":3,"parameterNumberName":"V-component_of_CURRENTS"},"data":[0,0,0,0,0,0,0,0,0,0,0,0,0,0,0,0,0,0,0,0,0,0,0,0,0,0,0,0,0,0,0,0,0,0,0,0,0,0,0,0,0,0,0,0,0,0,0,0,0,0,0,0,0,0,0,0,0,0,-0.0041,-0.0038,0,0.0164,0.0166,0.0169,0.0271,0.0271,0.0271,0.0271,0.0444,0.0448,0.0453,0,0,0,0,0,0,0,0,0,0,0,0,0,-0.0224,-0.0222,-0.0041,-0.0038,-0.0036,0.0164,0.0167,0.0169,0.0271,0.0271,0.0271,0.0271,0.0443,0.0448,0.0453,0,0,0,0,0,0,0,0,0,0,0,0,0,-0.0096,-0.0221,-0.0041,0.004,0.005,0.0163,0.0167,0.017,0.0271,0.0271,0.0271,0.0271,0.0441,0.0447,0.0454,0.0491,0,0,0.0474,0.0477,0,0,0,0,0,0,0,0,-0.0103,-0.0089,0.0026,0.0035,0.0046,0.0193,0.0166,0.0276,0.0271,0.0185,0.0271,0.0272,0.0358,0.0371,0.0408,0.0499,0.0506,0.0475,0.0479,0.0482,0.0484,0,0,0,0,0,0,0,-0.0112,-0.0097,0.0039,0.0028,0.0041,0.0108,0.0125,0.0188,0.0266,0.0193,0.0201,0.0226,0.0363,0.0401,0.0413,0.0509,0.0475,0.0481,0.0485,0.0487,0.0693,0.0694,0,0,0,0,0,0,-0.0141,-0.0106,0.0033,0.0045,-0.0028,0.0111,0.013,0.0145,0.0267,0.0286,0.0226,0.023,0.039,0.0405,0.0419,0.0492,0.0482,0.0488,0.0492,0.0691,0.0693,0.0695,0,0,0,0,0,0,-0.0146,-0.0132,0.0024,-0.0024,0.0001,0.0113,0.0129,0.0149,0.0188,0.0292,0.0311,0.0244,0.0391,0.041,0.0484,0.0498,0.0491,0.0497,0.069,0.0692,0.0694,0.0623,0,0,0,0,0,0,-0.0153,-0.0135,-0.0143,-0.0026,0.0002,0.0079,0.013,0.0152,0.0203,0.0211,0.0314,0.0331,0.0392,0.0473,0.049,0.0507,0.0502,0.0688,0.0691,0.0693,0.0623,0.0622,0.0621,0,0,0,0,0,-0.016,-0.0177,-0.0146,-0.0129,-0.0011,0.0079,0.0099,0.018,0.0203,0.0216,0.0296,0.0328,0.0503,0.0479,0.0499,0.0518,0.0687,0.069,0.0693,0.0624,0.0623,0.0621,0,0,0,0,0,0,-0.0268,-0.0164,-0.0128,-0.0115,-0.0029,0.0096,0.011,0.0172,0.0246,0.0247,0.0343,0.0366,0.0435,0.049,0.0462,0.0589,0.0601,0.0609,0.0542,0.0542,0.0541,0.0503,0.0508,0,0,0,0,0,-0.0294,-0.0281,-0.0162,-0.0156,-0.0119,-0.0006,0.0036,0.0097,0.0185,0.0218,0.0298,0.0384,0.0466,0.0511,0.0582,0.0648,0.0705,0.0678,0.0677,0.0675,0.0661,0.0767,0.0773,0.0705,0.0705,0.0705,0,0,-0.0337,-0.0278,-0.0272,-0.0177,-0.011,-0.0058,0.0019,0.0076,0.0126,0.0223,0.0295,0.0374,0.0481,0.0558,0.0595,0.0606,0.0727,0.0679,0.0677,0.0663,0.0771,0.0777,0.0783,0.0708,0.0707,0.0707,0,0,-0.0408,-0.0361,-0.0366,-0.0296,-0.0196,-0.0114,-0.0102,0.0024,0.0082,0.0167,0.0253,0.0346,0.046,0.0555,0.0614,0.0652,0.0711,0.0671,0.0645,0.0748,0.0753,0.0759,0.0841,0.0855,0.068,0.068,0.068,0,-0.0466,-0.0446,-0.0355,-0.0326,-0.0277,-0.0147,-0.0125,-0.0038,0.0098,0.015,0.0173,0.038,0.0464,0.0587,0.0602,0.0649,0.0701,0.0634,0.0743,0.075,0.0757,0.084,0.0856,0.0677,0.0677,0.0677,0.0678,0,-0.0519,-0.0499,-0.0496,-0.0414,-0.0349,-0.0313,-0.0174,-0.0106,-0.0022,0.0078,0.0204,0.0337,0.0461,0.0511,0.0566,0.0669,0.0687,0.0719,0.0735,0.0759,0.0846,0.0864,0.0672,0.0673,0.0674,0.0675,0,0,-0.066,-0.0557,-0.0557,-0.0532,-0.0393,-0.0347,-0.0259,-0.0134,-0.0071,0.0064,0.0154,0.0314,0.0391,0.0463,0.0563,0.0656,0.0759,0.0693,0.07,0.0752,0.0966,0.1069,0.1099,0.0799,0.0802,0.0804,0.1006,0,-0.0731,-0.0729,-0.0631,-0.0607,-0.0591,-0.0434,-0.0361,-0.0229,-0.0096,0.0024,0.019,0.0301,0.0375,0.0432,0.0542,0.0709,0.0801,0.0699,0.0953,0.096,0.1032,0.1122,0.1256,0.1455,0.1024,0.1027,0.1029,0,-0.0814,-0.0798,-0.0803,-0.0705,-0.068,-0.0631,-0.0486,-0.04,-0.0188,-0.0085,0.0072,0.0209,0.0389,0.043,0.0722,0.0647,0.0785,0.0908,0.092,0.1049,0.1098,0.1365,0.1504,0.1797,0.1057,0.1055,0.1053,0,-0.0977,-0.0913,-0.093,-0.0895,-0.0761,-0.0723,-0.0645,-0.045,-0.0369,-0.0158,-0.0069,0.0163,0.0291,0.0494,0.077,0.0738,0.1081,0.1082,0.1306,0.1314,0.1496,0.1517,0.1932,0.1263,0.1263,0.1262,0.1262,0,-0.1092,-0.1101,-0.1013,-0.1019,-0.1023,-0.0873,-0.0823,-0.0696,-0.0507,-0.0396,-0.0155,-0.0002,0.0308,0.0559,0.0767,0.1119,0.1095,0.1321,0.1389,0.1477,0.1493,0.1808,0.1891,0.127,0.1268,0.1267,0.1265,0,-0.1256,-0.1201,-0.1215,-0.1122,-0.1103,-0.1108,-0.0971,-0.0913,-0.0713,-0.0557,-0.0498,-0.0121,0.024,0.0566,0.0943,0.1139,0.1636,0.1552,0.1629,0.1703,0.2164,0.2234,0.2629,0.2795,0.1833,0.1837,0.184,0,-0.1332,-0.1365,-0.1335,-0.1359,-0.132,-0.1296,-0.1266,-0.1066,-0.0969,-0.0605,-0.053,-0.0135,0.0219,0.0839,0.1263,0.1694,0.1846,0.2008,0.1982,0.2245,0.2374,0.2379,0.2489,0.2198,0.2204,0.2209,0.2213,0,-0.1473,-0.1469,-0.1482,-0.1555,-0.1553,-0.1527,-0.1448,-0.1393,-0.1111,-0.0892,-0.0505,-0.0186,0.0495,0.1146,0.17,0.1922,0.2252,0.212,0.2406,0.2716,0.274,0.2913,0.198,0.2257,0.2253,0.225,0.2247,0.2246,-0.1571,-0.1638,-0.1676,-0.1732,-0.1743,-0.1716,-0.1657,-0.1494,-0.1289,-0.0854,-0.053,0.0102,0.1024,0.1896,0.2173,0.2813,0.2643,0.2968,0.3035,0.3018,0.319,0.2337,0.2676,0.2674,0.2673,0.2671,0.267,0,-0.1688,-0.1759,-0.1843,-0.1886,-0.1915,-0.1869,-0.1734,-0.1566,-0.1281,-0.0803,-0.0336,0.0843,0.1761,0.2532,0.3444,0.3743,0.3758,0.3845,0.3919,0.3989,0.329,0.3321,0.3802,0.3802,0.3802,0.3801,0.3801,0.38,-0.1749,-0.188,-0.193,-0.2021,-0.2032,-0.1948,-0.1842,-0.1522,-0.1121,-0.0296,0.0437,0.1007,0.2119,0.3697,0.4541,0.456,0.4812,0.4744,0.485,0.4409,0.4332,0.4259,0.4315,0.4997,0.4998,0.5559,0.5565,0.5569]}],[{"header":{"parameterUnit":"m.s-1","parameterCategory":2,"la1":30.2991,"la2":30.254,"lo1":-89.0895,"lo2":-89.0444,"dy":0.0017,"dx":0.0017,"nx":28,"ny":28,"refTime":"2024-04-28T09:00:00:Z","depth":"2","parameterNumber":2,"parameterNumberName":"U-component_of_CURRENTS"},"data":[0,0,0,0,0,0,0,0,0,0,0,0,0,0,0,0,0,0,0,0,0,0,0,0,0,0,0,0,0,0,0,0,0,0,0,0,0,0,0,0,0,0,0,0,0,0,0,0,0,0,0,0,0,0,0,0,0,0,-0.3979,-0.398,0,-0.4042,-0.4042,-0.4042,-0.4004,-0.4003,-0.4002,-0.4001,-0.3868,-0.3865,-0.3863,0,0,0,0,0,0,0,0,0,0,0,0,0,-0.3725,-0.373,-0.3978,-0.398,-0.3982,-0.4042,-0.4042,-0.4042,-0.4004,-0.4003,-0.4002,-0.4001,-0.3869,-0.3865,-0.3862,0,0,0,0,0,0,0,0,0,0,0,0,0,-0.3808,-0.3731,-0.3978,-0.3977,-0.3978,-0.4042,-0.4042,-0.4042,-0.4005,-0.4003,-0.4002,-0.4,-0.387,-0.3866,-0.3862,-0.3867,0,0,-0.385,-0.3848,0,0,0,0,0,0,0,0,-0.3804,-0.3816,-0.3975,-0.3977,-0.3979,-0.4022,-0.3904,-0.3977,-0.4005,-0.3985,-0.4001,-0.3999,-0.3908,-0.3901,-0.3906,-0.3861,-0.3855,-0.3849,-0.3847,-0.3845,-0.3844,0,0,0,0,0,0,0,-0.3798,-0.3813,-0.3994,-0.3977,-0.398,-0.394,-0.395,-0.3918,-0.3943,-0.3986,-0.3986,-0.4008,-0.3906,-0.391,-0.3902,-0.3853,-0.385,-0.3846,-0.3844,-0.3842,-0.3817,-0.3818,0,0,0,0,0,0,-0.3817,-0.3809,-0.3992,-0.3997,-0.3896,-0.3947,-0.3957,-0.4002,-0.3948,-0.3943,-0.4009,-0.4006,-0.3917,-0.3907,-0.3897,-0.3906,-0.3845,-0.3842,-0.3839,-0.3815,-0.3817,-0.3819,0,0,0,0,0,0,-0.3811,-0.3833,-0.399,-0.3909,-0.3928,-0.3954,-0.4003,-0.4004,-0.4013,-0.3969,-0.3958,-0.402,-0.3916,-0.3902,-0.3885,-0.39,-0.384,-0.3836,-0.3813,-0.3816,-0.3818,-0.392,0,0,0,0,0,0,-0.3804,-0.3831,-0.3859,-0.3912,-0.3934,-0.4042,-0.4006,-0.4007,-0.4034,-0.403,-0.3974,-0.396,-0.3914,-0.3892,-0.3881,-0.3893,-0.3833,-0.3811,-0.3814,-0.3817,-0.3914,-0.3925,-0.3935,0,0,0,0,0,-0.3795,-0.3853,-0.386,-0.3882,-0.3975,-0.4045,-0.4051,-0.4056,-0.4036,-0.4054,-0.4017,-0.3962,-0.3904,-0.389,-0.3878,-0.3889,-0.3809,-0.3813,-0.3817,-0.3909,-0.3923,-0.3935,0,0,0,0,0,0,-0.3752,-0.3857,-0.3865,-0.395,-0.3997,-0.4042,-0.4068,-0.4068,-0.4058,-0.4044,-0.3984,-0.397,-0.3959,-0.3919,-0.3905,-0.3894,-0.3847,-0.3849,-0.3922,-0.3934,-0.3944,-0.3943,-0.383,0,0,0,0,0,-0.3762,-0.3835,-0.3908,-0.3973,-0.4003,-0.4033,-0.4058,-0.4067,-0.4076,-0.407,-0.4036,-0.3996,-0.3968,-0.3947,-0.3917,-0.3912,-0.387,-0.3912,-0.3922,-0.3931,-0.3924,-0.3887,-0.3893,-0.3831,-0.3831,-0.3831,0,0,-0.3764,-0.3831,-0.3871,-0.3969,-0.4003,-0.4057,-0.4043,-0.4098,-0.4122,-0.4054,-0.4064,-0.4031,-0.3977,-0.3973,-0.3964,-0.3937,-0.3934,-0.3936,-0.3944,-0.3931,-0.3891,-0.3897,-0.3902,-0.3834,-0.3833,-0.3833,0,0,-0.3811,-0.3867,-0.3939,-0.3986,-0.4059,-0.4081,-0.4102,-0.4153,-0.4153,-0.417,-0.4125,-0.4108,-0.4069,-0.4039,-0.4014,-0.4065,-0.3993,-0.4057,-0.41,-0.4065,-0.4069,-0.4072,-0.4054,-0.4054,-0.4058,-0.4058,-0.4059,0,-0.3797,-0.3906,-0.3964,-0.4035,-0.4071,-0.4096,-0.4152,-0.417,-0.4201,-0.4199,-0.4181,-0.4139,-0.4098,-0.4083,-0.4103,-0.4086,-0.4058,-0.4056,-0.4078,-0.4079,-0.4081,-0.406,-0.4059,-0.4064,-0.4063,-0.4063,-0.4062,0,-0.3894,-0.3969,-0.4015,-0.4111,-0.4153,-0.421,-0.425,-0.4274,-0.427,-0.4275,-0.4269,-0.4228,-0.4196,-0.4191,-0.4157,-0.4154,-0.4131,-0.4098,-0.4043,-0.4093,-0.4069,-0.4066,-0.4071,-0.4069,-0.4068,-0.4067,0,0,-0.3891,-0.4049,-0.4063,-0.41,-0.4193,-0.423,-0.4283,-0.4325,-0.4337,-0.4347,-0.4346,-0.4323,-0.4297,-0.4269,-0.4232,-0.4206,-0.4205,-0.4161,-0.4157,-0.4139,-0.414,-0.4112,-0.4105,-0.4173,-0.4172,-0.4172,-0.4129,0,-0.3936,-0.4065,-0.4135,-0.4218,-0.4275,-0.4311,-0.4353,-0.4384,-0.4392,-0.4397,-0.4363,-0.4348,-0.4328,-0.4307,-0.4286,-0.4214,-0.4198,-0.422,-0.4097,-0.4093,-0.4058,-0.4101,-0.3722,-0.365,-0.4126,-0.4125,-0.4125,0,-0.3997,-0.4075,-0.4171,-0.426,-0.4286,-0.4325,-0.4368,-0.4408,-0.4429,-0.4434,-0.4427,-0.44,-0.4374,-0.4339,-0.4266,-0.428,-0.4223,-0.4172,-0.4168,-0.4097,-0.4059,-0.3672,-0.3626,-0.4119,-0.4119,-0.412,-0.412,0,-0.3952,-0.4088,-0.4151,-0.4187,-0.4298,-0.4319,-0.4358,-0.4404,-0.4427,-0.4442,-0.4452,-0.4426,-0.4396,-0.4334,-0.4258,-0.4254,-0.4164,-0.414,-0.4068,-0.4065,-0.3694,-0.366,-0.4085,-0.4085,-0.4085,-0.4085,-0.4085,0,-0.3973,-0.4016,-0.4126,-0.4163,-0.4193,-0.4285,-0.431,-0.4351,-0.4407,-0.4421,-0.4453,-0.445,-0.4389,-0.4341,-0.4267,-0.4166,-0.4174,-0.4078,-0.405,-0.3725,-0.3697,-0.4055,-0.4052,-0.4084,-0.4084,-0.4084,-0.4084,0,-0.3909,-0.4003,-0.4055,-0.4159,-0.4175,-0.4184,-0.4266,-0.4291,-0.4372,-0.439,-0.4397,-0.4447,-0.4393,-0.4339,-0.4227,-0.4172,-0.4077,-0.4037,-0.3682,-0.3615,-0.4002,-0.4005,-0.3953,-0.3952,-0.3951,-0.395,-0.3949,0,-0.3886,-0.3916,-0.4,-0.4006,-0.4043,-0.408,-0.4108,-0.4227,-0.4261,-0.4376,-0.437,-0.4379,-0.4329,-0.4208,-0.4034,-0.3897,-0.4034,-0.3568,-0.3505,-0.401,-0.3987,-0.3992,-0.3997,-0.3047,-0.3039,-0.3033,-0.3027,0,-0.3795,-0.382,-0.3858,-0.3881,-0.3904,-0.394,-0.3996,-0.4033,-0.4172,-0.4191,-0.4246,-0.4228,-0.4118,-0.3804,-0.3665,-0.3539,-0.3565,-0.3438,-0.3988,-0.3184,-0.3163,-0.3141,-0.3172,-0.2968,-0.2974,-0.2978,-0.2981,-0.2984,-0.3652,-0.367,-0.3713,-0.3705,-0.3739,-0.3768,-0.3699,-0.3721,-0.3726,-0.3596,-0.3897,-0.3664,-0.3666,-0.3192,-0.3098,-0.2992,-0.3221,-0.3087,-0.3102,-0.3126,-0.3073,-0.3056,-0.283,-0.2835,-0.2839,-0.2843,-0.2846,0,-0.3404,-0.3532,-0.353,-0.3517,-0.3384,-0.3546,-0.3572,-0.334,-0.3138,-0.3112,-0.3012,-0.2721,-0.2571,-0.2605,-0.2336,-0.2387,-0.2292,-0.2341,-0.2188,-0.2246,-0.2298,-0.22,-0.1727,-0.1724,-0.1722,-0.172,0,0,-0.328,-0.3228,-0.3253,-0.3058,-0.3096,-0.2816,-0.2761,-0.2484,-0.2302,-0.1978,-0.1845,-0.2025,-0.2322,-0.1901,-0.1921,-0.1773,-0.1951,-0.1675,-0.2545,-0.2399,-0.2447,-0.2688,-0.26,0,0,0,0,0]},{"header":{"parameterUnit":"m.s-1","parameterCategory":2,"la1":30.2991,"la2":30.254,"lo1":-89.0895,"lo2":-89.0444,"dy":0.0017,"dx":0.0017,"nx":28,"ny":28,"refTime":"2024-04-28T09:00:00:Z","depth":"2","parameterNumber":3,"parameterNumberName":"V-component_of_CURRENTS"},"data":[0,0,0,0,0,0,0,0,0,0,0,0,0,0,0,0,0,0,0,0,0,0,0,0,0,0,0,0,0,0,0,0,0,0,0,0,0,0,0,0,0,0,0,0,0,0,0,0,0,0,0,0,0,0,0,0,0,0,-0.0067,-0.0064,0,0.0137,0.0139,0.0141,0.0244,0.0244,0.0244,0.0244,0.0417,0.0421,0.0426,0,0,0,0,0,0,0,0,0,0,0,0,0,-0.0247,-0.0245,-0.0067,-0.0064,-0.0062,0.0136,0.0139,0.0142,0.0244,0.0244,0.0244,0.0245,0.0415,0.0421,0.0426,0,0,0,0,0,0,0,0,0,0,0,0,0,-0.012,-0.0244,-0.0067,0.0014,0.0024,0.0136,0.0139,0.0142,0.0244,0.0244,0.0244,0.0245,0.0414,0.042,0.0427,0.0462,0,0,0.0447,0.045,0,0,0,0,0,0,0,0,-0.0128,-0.0114,-0.0,0.0009,0.002,0.0166,0.0139,0.0248,0.0244,0.0159,0.0244,0.0245,0.0331,0.0344,0.0381,0.047,0.0478,0.0448,0.0452,0.0454,0.0456,0,0,0,0,0,0,0,-0.0137,-0.0121,0.0012,0.0002,0.0015,0.0082,0.0099,0.0161,0.0239,0.0166,0.0175,0.0199,0.0336,0.0374,0.0385,0.048,0.0447,0.0453,0.0457,0.046,0.0663,0.0664,0,0,0,0,0,0,-0.0166,-0.013,0.0006,0.0019,-0.0053,0.0084,0.0104,0.0118,0.024,0.0259,0.0199,0.0203,0.0363,0.0378,0.0392,0.0464,0.0454,0.0461,0.0464,0.0661,0.0663,0.0665,0,0,0,0,0,0,-0.017,-0.0156,-0.0002,-0.0049,-0.0025,0.0086,0.0102,0.0122,0.0161,0.0265,0.0283,0.0218,0.0363,0.0382,0.0456,0.047,0.0464,0.047,0.066,0.0662,0.0664,0.0593,0,0,0,0,0,0,-0.0177,-0.0159,-0.0168,-0.0052,-0.0023,0.0052,0.0103,0.0126,0.0176,0.0184,0.0287,0.0304,0.0365,0.0445,0.0462,0.0479,0.0475,0.0658,0.0661,0.0663,0.0593,0.0592,0.0591,0,0,0,0,0,-0.0184,-0.0202,-0.017,-0.0153,-0.0037,0.0052,0.0072,0.0152,0.0176,0.0189,0.0269,0.0301,0.0475,0.0452,0.0471,0.049,0.0657,0.066,0.0663,0.0594,0.0593,0.0591,0,0,0,0,0,0,-0.0291,-0.0189,-0.0152,-0.014,-0.0055,0.0069,0.0082,0.0144,0.0219,0.022,0.0316,0.0338,0.0407,0.0462,0.0434,0.056,0.0572,0.0579,0.0513,0.0513,0.0512,0.0475,0.048,0,0,0,0,0,-0.0317,-0.0305,-0.0187,-0.0181,-0.0145,-0.0033,0.0009,0.007,0.0157,0.019,0.027,0.0356,0.0437,0.0482,0.0552,0.0618,0.0675,0.0647,0.0646,0.0644,0.063,0.0736,0.0742,0.0675,0.0675,0.0675,0,0,-0.036,-0.0301,-0.0296,-0.0203,-0.0136,-0.0085,-0.0008,0.0048,0.0098,0.0195,0.0267,0.0346,0.0451,0.0528,0.0565,0.0576,0.0696,0.0648,0.0646,0.0633,0.074,0.0746,0.0752,0.0677,0.0677,0.0676,0,0,-0.0431,-0.0385,-0.039,-0.0321,-0.0222,-0.0141,-0.0129,-0.0004,0.0054,0.0138,0.0224,0.0316,0.043,0.0524,0.0583,0.062,0.0679,0.0639,0.0613,0.0715,0.0721,0.0727,0.0808,0.0822,0.0648,0.0648,0.0647,0,-0.0489,-0.0469,-0.0379,-0.0351,-0.0303,-0.0173,-0.0152,-0.0066,0.0069,0.0121,0.0144,0.035,0.0434,0.0556,0.0571,0.0617,0.0669,0.0603,0.0711,0.0718,0.0725,0.0807,0.0823,0.0645,0.0645,0.0645,0.0645,0,-0.0542,-0.0522,-0.052,-0.044,-0.0376,-0.034,-0.0202,-0.0135,-0.0051,0.0049,0.0174,0.0306,0.0429,0.0479,0.0534,0.0636,0.0655,0.0686,0.0703,0.0727,0.0813,0.0831,0.064,0.0641,0.0642,0.0643,0,0,-0.0682,-0.0581,-0.0582,-0.0557,-0.042,-0.0374,-0.0287,-0.0164,-0.0101,0.0033,0.0123,0.0282,0.0359,0.0431,0.053,0.0624,0.0726,0.066,0.0667,0.072,0.0932,0.1032,0.1062,0.0766,0.0769,0.0771,0.0972,0,-0.0753,-0.0752,-0.0656,-0.0632,-0.0617,-0.0462,-0.039,-0.0259,-0.0127,-0.0007,0.0158,0.0269,0.0343,0.04,0.051,0.0676,0.0767,0.0667,0.0919,0.0927,0.0996,0.1085,0.0828,0.0994,0.099,0.0993,0.0995,0,-0.0836,-0.0821,-0.0828,-0.073,-0.0706,-0.0658,-0.0514,-0.0429,-0.0218,-0.0115,0.0041,0.0177,0.0357,0.0398,0.0689,0.0615,0.0753,0.0875,0.0887,0.1013,0.1061,0.0974,0.1027,0.1025,0.1023,0.1021,0.1019,0,-0.0998,-0.0936,-0.0953,-0.0919,-0.0787,-0.0749,-0.0672,-0.0479,-0.0398,-0.0188,-0.0099,0.0132,0.026,0.0462,0.0737,0.0706,0.1047,0.1048,0.1268,0.1276,0.1126,0.1118,0.1228,0.1228,0.1228,0.1227,0.1227,0,-0.1112,-0.1122,-0.1036,-0.1041,-0.1046,-0.0898,-0.0848,-0.0722,-0.0534,-0.0425,-0.0184,-0.0032,0.0277,0.0526,0.0734,0.1082,0.106,0.1283,0.135,0.1099,0.1087,0.1161,0.115,0.1235,0.1233,0.1232,0.123,0,-0.1276,-0.1221,-0.1236,-0.1145,-0.1125,-0.1131,-0.0994,-0.0938,-0.0739,-0.0584,-0.0525,-0.015,0.0208,0.0533,0.0908,0.1102,0.1399,0.1512,0.1199,0.1229,0.1547,0.1531,0.1778,0.1783,0.1788,0.1792,0.1795,0,-0.1351,-0.1385,-0.1355,-0.1379,-0.1341,-0.1317,-0.1287,-0.1089,-0.0993,-0.0632,-0.0557,-0.0165,0.0169,0.0783,0.1092,0.1488,0.1555,0.1556,0.1478,0.1571,0.1612,0.1587,0.1565,0.1235,0.1234,0.1232,0.1231,0,-0.1492,-0.1487,-0.1502,-0.1573,-0.1572,-0.1546,-0.1468,-0.1414,-0.1135,-0.093,-0.0548,-0.0249,0.0319,0.0713,0.1219,0.1407,0.1476,0.1553,0.1737,0.1164,0.1085,0.1117,0.1107,0.122,0.1221,0.1222,0.1223,0.1223,-0.1589,-0.1656,-0.1694,-0.175,-0.1761,-0.1734,-0.1676,-0.156,-0.1374,-0.1049,-0.0691,-0.0276,0.0187,0.0805,0.118,0.1458,0.1503,0.1555,0.1547,0.1543,0.1473,0.141,0.1591,0.1594,0.1596,0.1599,0.1601,0,-0.1701,-0.1777,-0.186,-0.1903,-0.1931,-0.1886,-0.1753,-0.166,-0.1452,-0.1197,-0.0842,-0.0361,0.011,0.0606,0.0984,0.1355,0.1228,0.1446,0.1179,0.1185,0.1193,0.1096,0.1119,0.112,0.1121,0.1122,0,0,-0.176,-0.1888,-0.1939,-0.2031,-0.2046,-0.2007,-0.1904,-0.1755,-0.1559,-0.1283,-0.103,-0.0664,0.0015,0.0237,0.0655,0.0886,0.0937,0.0881,0.12,0.083,0.0834,0.1167,0.1018,0,0,0,0,0]}],[{"header":{"parameterUnit":"m.s-1","parameterCategory":2,"la1":30.2991,"la2":30.254,"lo1":-89.0895,"lo2":-89.0444,"dy":0.0017,"dx":0.0017,"nx":28,"ny":28,"refTime":"2024-04-28T09:00:00:Z","depth":"4","parameterNumber":2,"parameterNumberName":"U-component_of_CURRENTS"},"data":[0,0,0,0,0,0,0,0,0,0,0,0,0,0,0,0,0,0,0,0,0,0,0,0,0,0,0,0,0,0,0,0,0,0,0,0,0,0,0,0,0,0,0,0,0,0,0,0,0,0,0,0,0,0,0,0,0,0,-0.2007,-0.2008,0,-0.2086,-0.2087,-0.2087,-0.2133,-0.2133,-0.2134,-0.2134,-0.2185,-0.2186,-0.2187,0,0,0,0,0,0,0,0,0,0,0,0,0,-0.1871,-0.1873,-0.2007,-0.2008,-0.2009,-0.2086,-0.2087,-0.2088,-0.2133,-0.2133,-0.2134,-0.2134,-0.2185,-0.2186,-0.2187,0,0,0,0,0,0,0,0,0,0,0,0,0,-0.1935,-0.1874,-0.2006,-0.2044,-0.2048,-0.2086,-0.2087,-0.2088,-0.2132,-0.2133,-0.2134,-0.2135,-0.2185,-0.2186,-0.2187,-0.2181,0,0,-0.2191,-0.2192,0,0,0,0,0,0,0,0,-0.1931,-0.1939,-0.2037,-0.2041,-0.2046,-0.2104,-0.2058,-0.2119,-0.2132,-0.2096,-0.2134,-0.2135,-0.2157,-0.2161,-0.2169,-0.2183,-0.2185,-0.2192,-0.2192,-0.2193,-0.2193,0,0,0,0,0,0,0,-0.1926,-0.1936,-0.2034,-0.2038,-0.2044,-0.2049,-0.2059,-0.207,-0.2118,-0.21,-0.2104,-0.2119,-0.2159,-0.2168,-0.2171,-0.2186,-0.2192,-0.2193,-0.2194,-0.2194,-0.2325,-0.2328,0,0,0,0,0,0,-0.1925,-0.1932,-0.2032,-0.2037,-0.1993,-0.2051,-0.2062,-0.2081,-0.2119,-0.2127,-0.2118,-0.212,-0.2165,-0.2169,-0.2173,-0.2296,-0.2193,-0.2194,-0.2195,-0.2323,-0.2326,-0.2329,0,0,0,0,0,0,-0.1922,-0.1933,-0.2029,-0.1989,-0.2002,-0.2053,-0.2075,-0.2083,-0.2134,-0.2134,-0.214,-0.2167,-0.2166,-0.2171,-0.2235,-0.2293,-0.2195,-0.2196,-0.232,-0.2324,-0.2327,-0.2459,0,0,0,0,0,0,-0.1917,-0.1932,-0.1958,-0.1989,-0.2004,-0.2085,-0.2075,-0.2084,-0.2141,-0.2147,-0.2177,-0.218,-0.2167,-0.2234,-0.2237,-0.2293,-0.2197,-0.2316,-0.2321,-0.2326,-0.2451,-0.2467,-0.248,0,0,0,0,0,-0.1912,-0.1941,-0.1959,-0.1972,-0.2035,-0.2087,-0.2096,-0.2131,-0.2144,-0.2178,-0.2208,-0.2181,-0.2267,-0.2237,-0.224,-0.2298,-0.2314,-0.232,-0.2326,-0.2445,-0.2464,-0.248,0,0,0,0,0,0,-0.1894,-0.1949,-0.197,-0.2014,-0.2065,-0.2097,-0.2131,-0.2157,-0.2207,-0.2223,-0.2217,-0.2224,-0.2297,-0.2282,-0.2249,-0.2351,-0.2285,-0.2292,-0.2375,-0.2392,-0.2407,-0.2396,-0.2198,0,0,0,0,0,-0.1903,-0.1941,-0.1994,-0.2033,-0.2062,-0.2106,-0.2137,-0.2169,-0.221,-0.2235,-0.2263,-0.229,-0.2316,-0.2344,-0.2359,-0.242,-0.2381,-0.2458,-0.2473,-0.2485,-0.248,-0.2478,-0.2491,-0.2349,-0.2349,-0.2348,0,0,-0.1903,-0.1942,-0.1963,-0.2033,-0.2071,-0.2131,-0.2127,-0.2193,-0.2255,-0.223,-0.2329,-0.2342,-0.2342,-0.2412,-0.2443,-0.2414,-0.2511,-0.2493,-0.2504,-0.2491,-0.2485,-0.2499,-0.2511,-0.2353,-0.2352,-0.2351,0,0,-0.1915,-0.1964,-0.2001,-0.2057,-0.2135,-0.217,-0.2203,-0.2273,-0.232,-0.2408,-0.2406,-0.2457,-0.2512,-0.2524,-0.2532,-0.2635,-0.2582,-0.2652,-0.2727,-0.2727,-0.2738,-0.2747,-0.2732,-0.2738,-0.2666,-0.2667,-0.2667,0,-0.1915,-0.1976,-0.202,-0.2081,-0.2139,-0.2197,-0.2264,-0.2319,-0.2409,-0.2452,-0.2461,-0.2552,-0.2558,-0.2624,-0.2668,-0.2667,-0.2653,-0.2662,-0.2745,-0.2753,-0.276,-0.2741,-0.2747,-0.2674,-0.2673,-0.2672,-0.2672,0,-0.1949,-0.2024,-0.2056,-0.2154,-0.2221,-0.2293,-0.2379,-0.246,-0.2526,-0.2573,-0.2673,-0.2691,-0.2737,-0.2761,-0.275,-0.2818,-0.2788,-0.2757,-0.2696,-0.2782,-0.2758,-0.2761,-0.2684,-0.2681,-0.2679,-0.2677,0,0,-0.1877,-0.2046,-0.2061,-0.2137,-0.2276,-0.2331,-0.2452,-0.2562,-0.2636,-0.2727,-0.2808,-0.2874,-0.2884,-0.2893,-0.2893,-0.2907,-0.2956,-0.2871,-0.2868,-0.2849,-0.2955,-0.2788,-0.2775,-0.2948,-0.2949,-0.295,-0.2923,0,-0.1894,-0.2015,-0.2106,-0.2244,-0.2319,-0.2437,-0.2543,-0.2655,-0.274,-0.2834,-0.2874,-0.2943,-0.2935,-0.2967,-0.2986,-0.2956,-0.297,-0.2965,-0.288,-0.2876,-0.2712,-0.2774,-0.2953,-0.2925,-0.2926,-0.2926,-0.2926,0,-0.1885,-0.1982,-0.211,-0.231,-0.2354,-0.2453,-0.2628,-0.273,-0.2864,-0.2932,-0.3009,-0.3032,-0.3086,-0.3053,-0.3057,-0.306,-0.3023,-0.2993,-0.2991,-0.2783,-0.2715,-0.2818,-0.2931,-0.2931,-0.293,-0.293,-0.293,0,-0.1786,-0.1984,-0.2091,-0.2158,-0.2379,-0.2475,-0.2597,-0.2756,-0.2844,-0.2983,-0.3043,-0.311,-0.3141,-0.312,-0.3078,-0.3076,-0.3049,-0.3027,-0.2842,-0.283,-0.2928,-0.2918,-0.3018,-0.3018,-0.3018,-0.3018,-0.3018,0,-0.1746,-0.1836,-0.2064,-0.2123,-0.2263,-0.2442,-0.2585,-0.2713,-0.2879,-0.2958,-0.3077,-0.3118,-0.3161,-0.3152,-0.3101,-0.2973,-0.3066,-0.2851,-0.2811,-0.2987,-0.2984,-0.2931,-0.2921,-0.3017,-0.3017,-0.3017,-0.3017,0,-0.1597,-0.1752,-0.1887,-0.2137,-0.2215,-0.2312,-0.2564,-0.2659,-0.284,-0.294,-0.2986,-0.313,-0.3114,-0.3117,-0.3073,-0.2977,-0.2883,-0.2815,-0.3007,-0.2977,-0.2661,-0.2659,-0.2601,-0.2595,-0.259,-0.2586,-0.2582,0,-0.1524,-0.1578,-0.1838,-0.1922,-0.2041,-0.2218,-0.2338,-0.2591,-0.268,-0.2908,-0.2924,-0.3005,-0.3054,-0.2858,-0.2896,-0.2783,-0.2747,-0.27,-0.2681,-0.2652,-0.2619,-0.2625,-0.263,-0.2574,-0.2573,-0.2571,-0.257,0,-0.1366,-0.147,-0.1579,-0.1754,-0.1905,-0.2052,-0.224,-0.2288,-0.2552,-0.2742,-0.2776,-0.2777,-0.2762,-0.2725,-0.2662,-0.2585,-0.2732,-0.2645,-0.2655,-0.2637,-0.2618,-0.2592,-0.2602,-0.2552,-0.2554,-0.2556,-0.2557,0,-0.1227,-0.1258,-0.1414,-0.1554,-0.1729,-0.183,-0.1972,-0.2104,-0.223,-0.2501,-0.2497,-0.2594,-0.2724,-0.262,-0.256,-0.2475,-0.2433,-0.2358,-0.2383,-0.2403,-0.235,-0.2298,-0.2094,0,0,0,0,0,-0.1069,-0.1091,-0.1207,-0.1356,-0.1528,-0.162,-0.1877,-0.203,-0.228,-0.2235,-0.2366,-0.2343,-0.231,-0.2375,-0.2234,-0.2444,-0.2421,-0.2275,-0.2343,-0.2452,-0.2473,-0.2428,0,0,0,0,0,0,-0.0971,-0.1038,-0.1118,-0.1156,-0.1205,-0.137,-0.1517,-0.1708,-0.1716,-0.1969,-0.1954,-0.2159,-0.214,-0.2288,-0.2149,-0.2166,-0.2161,-0.2355,-0.2349,-0.244,-0.2459,-0.2476,-0.2437,0,0,0,0,0]},{"header":{"parameterUnit":"m.s-1","parameterCategory":2,"la1":30.2991,"la2":30.254,"lo1":-89.0895,"lo2":-89.0444,"dy":0.0017,"dx":0.0017,"nx":28,"ny":28,"refTime":"2024-04-28T09:00:00:Z","depth":"4","parameterNumber":3,"parameterNumberName":"V-component_of_CURRENTS"},"data":[0,0,0,0,0,0,0,0,0,0,0,0,0,0,0,0,0,0,0,0,0,0,0,0,0,0,0,0,0,0,0,0,0,0,0,0,0,0,0,0,0,0,0,0,0,0,0,0,0,0,0,0,0,0,0,0,0,0,-0.0342,-0.0341,0,-0.0233,-0.0232,-0.023,-0.015,-0.015,-0.0149,-0.0149,-0.0018,-0.0015,-0.0012,0,0,0,0,0,0,0,0,0,0,0,0,0,-0.0394,-0.0394,-0.0342,-0.0341,-0.0339,-0.0233,-0.0232,-0.023,-0.0151,-0.015,-0.0149,-0.0149,-0.0019,-0.0016,-0.0012,0,0,0,0,0,0,0,0,0,0,0,0,0,-0.0336,-0.0394,-0.0342,-0.0288,-0.0282,-0.0233,-0.0231,-0.0229,-0.0151,-0.015,-0.0149,-0.0148,-0.002,-0.0016,-0.0012,-0.0001,0,0,0.0002,0.0004,0,0,0,0,0,0,0,0,-0.034,-0.0334,-0.0297,-0.0292,-0.0285,-0.0206,-0.0202,-0.0153,-0.0151,-0.0199,-0.0149,-0.0148,-0.008,-0.0071,-0.0051,0.0005,0.001,0.0002,0.0005,0.0007,0.0008,0,0,0,0,0,0,0,-0.0344,-0.0338,-0.0297,-0.0296,-0.0289,-0.0239,-0.0231,-0.0192,-0.0145,-0.0195,-0.0189,-0.0179,-0.0077,-0.0055,-0.0047,0.0012,0.0002,0.0006,0.0009,0.001,0.013,0.0131,0,0,0,0,0,0,-0.0366,-0.0343,-0.0301,-0.0294,-0.0312,-0.024,-0.023,-0.0231,-0.0145,-0.0132,-0.018,-0.0176,-0.0063,-0.0052,-0.0042,0.0004,0.0007,0.0011,0.0013,0.013,0.013,0.0131,0,0,0,0,0,0,-0.0367,-0.0364,-0.0305,-0.0316,-0.0305,-0.0241,-0.0241,-0.0229,-0.0206,-0.0135,-0.012,-0.017,-0.0062,-0.0048,-0.0001,0.0009,0.0013,0.0017,0.0129,0.013,0.0131,0.0078,0,0,0,0,0,0,-0.037,-0.0365,-0.0379,-0.0318,-0.0306,-0.0288,-0.0242,-0.0228,-0.0202,-0.0196,-0.0121,-0.0108,-0.006,-0.0007,0.0004,0.0015,0.002,0.0128,0.0129,0.013,0.0079,0.0077,0.0075,0,0,0,0,0,-0.0372,-0.0401,-0.0381,-0.0376,-0.0326,-0.0289,-0.0279,-0.0228,-0.0203,-0.0202,-0.014,-0.011,0.0007,-0.0004,0.0009,0.0022,0.0128,0.0129,0.013,0.008,0.0078,0.0075,0,0,0,0,0,0,-0.0434,-0.0394,-0.037,-0.0387,-0.0345,-0.0277,-0.0279,-0.0236,-0.0187,-0.0181,-0.0107,-0.009,-0.0046,-0.0006,-0.002,0.0061,0.0074,0.0077,0.0031,0.0029,0.0027,0.0016,0.0024,0,0,0,0,0,-0.0455,-0.0468,-0.0409,-0.0424,-0.0409,-0.0344,-0.0325,-0.0286,-0.0232,-0.0209,-0.0151,-0.0088,-0.0031,0.0002,0.0048,0.009,0.0138,0.0109,0.0107,0.0105,0.0106,0.019,0.0196,0.0135,0.0135,0.0135,0,0,-0.0485,-0.0465,-0.0472,-0.0438,-0.0405,-0.0387,-0.033,-0.031,-0.0283,-0.0204,-0.016,-0.0102,-0.0025,0.0025,0.0049,0.0062,0.0146,0.0106,0.0104,0.0106,0.0192,0.0198,0.0203,0.0136,0.0135,0.0135,0,0,-0.0548,-0.0532,-0.0558,-0.0526,-0.0482,-0.0435,-0.0432,-0.0363,-0.0322,-0.0272,-0.0203,-0.0135,-0.0061,0.0012,0.0056,0.0071,0.0124,0.008,0.0072,0.0154,0.0159,0.0165,0.0224,0.0235,0.0089,0.0089,0.0089,0,-0.0587,-0.0602,-0.0559,-0.0562,-0.0539,-0.046,-0.0461,-0.0409,-0.0328,-0.0287,-0.027,-0.0121,-0.0061,0.0032,0.0042,0.0067,0.0111,0.0072,0.0151,0.0157,0.0164,0.0223,0.0237,0.0086,0.0087,0.0087,0.0087,0,-0.0652,-0.0658,-0.0671,-0.0645,-0.0614,-0.0607,-0.0524,-0.0483,-0.0423,-0.0352,-0.026,-0.0164,-0.007,-0.0037,0.001,0.0093,0.0107,0.0128,0.0152,0.0167,0.0229,0.0243,0.0083,0.0084,0.0085,0.0085,0,0,-0.0745,-0.0724,-0.0727,-0.072,-0.0654,-0.0634,-0.0586,-0.0508,-0.0464,-0.0371,-0.03,-0.0183,-0.0119,-0.0065,0.0012,0.0093,0.0179,0.0126,0.0132,0.0177,0.0344,0.0291,0.0303,0.0212,0.0214,0.0216,0.0365,0,-0.0805,-0.0842,-0.0798,-0.0804,-0.0806,-0.071,-0.0671,-0.0585,-0.0493,-0.0406,-0.0275,-0.0188,-0.0132,-0.0081,0.0008,0.014,0.0216,0.0135,0.0331,0.0337,0.0282,0.0318,0.0224,0.0376,0.0379,0.0382,0.0384,0,-0.087,-0.0884,-0.0919,-0.0874,-0.0865,-0.0849,-0.0754,-0.0706,-0.0556,-0.0481,-0.0358,-0.025,-0.0102,-0.0069,0.0161,0.0104,0.0213,0.0311,0.0319,0.0299,0.0311,0.0364,0.0411,0.0409,0.0407,0.0405,0.0403,0,-0.0953,-0.0954,-0.0988,-0.0976,-0.0921,-0.0905,-0.0863,-0.0736,-0.0685,-0.0524,-0.046,-0.0274,-0.0172,-0.0007,0.0198,0.0185,0.044,0.0449,0.0504,0.0501,0.0526,0.0519,0.0598,0.0598,0.0598,0.0597,0.0597,0,-0.1015,-0.1039,-0.1038,-0.1053,-0.1075,-0.0997,-0.0976,-0.0894,-0.0774,-0.0708,-0.0517,-0.0414,-0.015,0.0033,0.0196,0.0394,0.0442,0.0509,0.0542,0.0499,0.0487,0.0536,0.0527,0.0603,0.0602,0.06,0.0599,0,-0.1081,-0.109,-0.1129,-0.1115,-0.1121,-0.1132,-0.1078,-0.1046,-0.092,-0.0825,-0.0775,-0.0503,-0.0259,-0.0009,0.0285,0.0385,0.0583,0.0637,0.0567,0.0593,0.0588,0.0575,0.0711,0.071,0.071,0.071,0.0709,0,-0.1111,-0.1149,-0.1198,-0.1238,-0.1239,-0.1249,-0.1252,-0.1144,-0.109,-0.0876,-0.0828,-0.0562,-0.0373,0.0011,0.0263,0.0568,0.0598,0.0687,0.0642,0.0584,0.0603,0.059,0.0578,0.0709,0.0709,0.0708,0.0708,0,-0.1157,-0.1192,-0.1226,-0.1327,-0.1366,-0.1385,-0.1368,-0.1341,-0.1192,-0.1091,-0.0852,-0.0607,-0.0329,-0.0009,0.0235,0.0449,0.0625,0.0683,0.0685,0.0644,0.0583,0.06,0.0588,0.0707,0.0707,0.0707,0.0707,0,-0.1184,-0.1233,-0.1306,-0.1374,-0.1452,-0.1479,-0.1463,-0.1368,-0.1294,-0.1048,-0.0976,-0.0635,-0.0415,-0.0069,0.0155,0.0363,0.0401,0.0439,0.0454,0.0459,0.0333,0.0215,0.0262,0,0,0,0,0,-0.1189,-0.1252,-0.134,-0.1417,-0.1501,-0.1528,-0.1513,-0.1467,-0.1339,-0.1197,-0.1076,-0.0811,-0.041,-0.02,-0.0005,0.0112,0.0408,0.0341,0.045,0.0699,0.07,0.059,0,0,0,0,0,0,-0.1195,-0.129,-0.1338,-0.1438,-0.1494,-0.156,-0.155,-0.1468,-0.1354,-0.1201,-0.0977,-0.0808,-0.0413,-0.0532,-0.0014,0.0058,0.0142,0.0553,0.0556,0.0698,0.0699,0.0701,0.0588,0,0,0,0,0]}]]